TimeEST,TemperatureF,Dew PointF,Humidity,Sea Level PressureIn,VisibilityMPH,Wind Direction,Wind SpeedMPH,Gust SpeedMPH,PrecipitationIn,Events,Conditions,WindDirDegrees,DateUTC
12:10 AM,42.8,35.6,76,30.37,10.0,North,15.0,-,N/A,,Scattered Clouds,10,2012-11-17 05:10:00
12:53 AM,43.0,35.1,74,30.38,10.0,North,11.5,-,N/A,,Clear,10,2012-11-17 05:53:00
1:53 AM,43.0,35.1,74,30.39,10.0,North,11.5,-,N/A,,Clear,10,2012-11-17 06:53:00
2:53 AM,44.1,36.0,73,30.40,10.0,North,11.5,-,N/A,,Scattered Clouds,10,2012-11-17 07:53:00
3:53 AM,43.0,36.0,76,30.41,10.0,NNE,11.5,-,N/A,,Clear,20,2012-11-17 08:53:00
4:53 AM,44.1,37.0,76,30.43,10.0,NNE,13.8,-,N/A,,Clear,20,2012-11-17 09:53:00
5:29 AM,44.6,37.4,76,30.45,10.0,NNE,16.1,-,N/A,,Mostly Cloudy,20,2012-11-17 10:29:00
5:53 AM,45.0,37.0,74,30.46,10.0,NNE,16.1,-,N/A,,Scattered Clouds,20,2012-11-17 10:53:00
6:22 AM,44.6,37.4,76,30.47,10.0,NNE,15.0,-,N/A,,Mostly Cloudy,20,2012-11-17 11:22:00
7:53 AM,46.9,37.9,71,30.51,10.0,NNE,18.4,-,N/A,,Overcast,20,2012-11-17 12:53:00
8:53 AM,46.9,37.0,68,30.53,10.0,NNE,17.3,25.3,N/A,,Overcast,20,2012-11-17 13:53:00
9:53 AM,48.0,37.9,68,30.55,10.0,NNE,13.8,-,N/A,,Overcast,20,2012-11-17 14:53:00
10:21 AM,48.2,35.6,62,30.55,10.0,NNE,17.3,24.2,N/A,,Overcast,30,2012-11-17 15:21:00
10:53 AM,48.9,37.9,66,30.55,10.0,NE,16.1,-,N/A,,Overcast,40,2012-11-17 15:53:00
11:53 AM,50.0,37.9,63,30.54,10.0,NNE,19.6,-,N/A,,Mostly Cloudy,20,2012-11-17 16:53:00
12:53 PM,48.9,36.0,61,30.55,10.0,NNE,18.4,25.3,N/A,,Mostly Cloudy,30,2012-11-17 17:53:00
1:53 PM,48.0,35.1,61,30.56,10.0,NNE,16.1,-,N/A,,Mostly Cloudy,20,2012-11-17 18:53:00
2:53 PM,46.9,35.1,63,30.57,10.0,NNE,15.0,21.9,N/A,,Overcast,30,2012-11-17 19:53:00
3:53 PM,45.0,34.0,65,30.58,10.0,NNE,13.8,-,N/A,,Overcast,20,2012-11-17 20:53:00
4:53 PM,44.1,34.0,68,30.60,10.0,NNE,12.7,-,N/A,,Mostly Cloudy,20,2012-11-17 21:53:00
5:53 PM,42.1,34.0,73,30.61,10.0,NNE,8.1,-,N/A,,Mostly Cloudy,30,2012-11-17 22:53:00
6:49 PM,42.8,33.8,70,30.61,10.0,NE,6.9,-,N/A,,Mostly Cloudy,40,2012-11-17 23:49:00
6:53 PM,42.1,34.0,73,30.61,10.0,NE,6.9,-,N/A,,Mostly Cloudy,40,2012-11-17 23:53:00
7:05 PM,39.2,33.8,81,30.61,10.0,NNE,8.1,-,N/A,,Scattered Clouds,30,2012-11-18 00:05:00
7:53 PM,37.0,32.0,82,30.61,10.0,NNE,8.1,-,N/A,,Clear,30,2012-11-18 00:53:00
8:53 PM,37.9,32.0,79,30.63,10.0,NNE,6.9,-,N/A,,Scattered Clouds,30,2012-11-18 01:53:00
9:53 PM,39.9,33.1,77,30.62,10.0,NNE,10.4,-,N/A,,Clear,20,2012-11-18 02:53:00
10:53 PM,37.9,32.0,79,30.63,10.0,NE,5.8,-,N/A,,Clear,50,2012-11-18 03:53:00
11:53 PM,37.0,30.0,76,30.64,10.0,NE,5.8,-,N/A,,Clear,50,2012-11-18 04:53:00